Tracking 19562 objects as of 23-Mar-2019
HD Live streaming from Space Station
objects crossing your sky now

FLOCK 3K 12

Track FLOCK 3K 12 now!
10-day predictions
FLOCK 3K 12 is classified as:


NORAD ID: 43903
Int'l Code: 2018-111AD
Perigee: 486.0 km
Apogee: 515.0 km
Inclination: 97.3 °
Period: 94.5 minutes
Semi major axis: 6871 km
RCS: Unknown
Launch date: December 27, 2018
Source: United States (US)
Launch site: VOSTOCHNY COSMODROME (VOSTO)
aabbcc
Your satellite tracking list
Your tracking list is empty




NASA's NSSDC Master Catalog

Two Line Element Set (TLE):
1 43903U 18111AD  19082.16896463  .00002595  00000-0  10897-3 0  9993
2 43903  97.2959 349.7584 0021143 304.9923  54.9329 15.24147057 13117
Source of the keplerian elements: AFSPC